Theta_e
311 311 313 314 316 316 317 316 315 314 313 314 317 320 317 311 306 303 300 302 298 298 300 304 310 316 320 321 321 322 322 321 320 321 321 321 320 320 322 322 322 322 320 320
309 313 312 312 314 312 312 310 311 312 313 317 319 319 316 310 307 302 300 298 298 297 297 299 302 306 312 315 318 319 320 320 319 320 320 321 321 321 320 319 320 321 321 321
308 314 312 312 312 311 310 311 312 315 316 318 317 318 313 308 305 301 298 297 299 296 295 295 297 299 305 306 306 311 315 313 314 316 316 317 319 319 319 320 320 320 320 320
309 313 313 310 309 310 310 311 314 314 315 314 309 303 301 302 300 298 297 296 297 298 294 293 295 296 298 301 303 302 304 306 306 311 312 309 313 317 314 314 315 315 316 316
313 311 309 308 310 311 312 315 313 312 312 311 304 303 297 296 297 296 296 295 294 298 297 293 293 294 295 299 297 300 301 300 300 304 310 308 305 313 310 309 310 309 309 309
310 310 309 312 310 310 310 313 310 310 310 310 308 313 300 293 293 293 293 293 293 294 296 295 296 295 298 299 296 299 298 299 295 299 299 300 302 304 302 303 303 304 305 304
311 309 310 310 309 309 309 313 308 306 303 301 302 296 292 292 293 293 293 292 292 292 292 294 294 296 299 297 296 294 294 294 294 297 298 299 301 301 296 296 298 299 299 297
309 309 310 307 310 312 307 306 305 302 298 295 292 291 291 291 291 291 291 291 291 290 291 291 292 293 294 295 295 296 296 296 296 297 297 297 296 296 296 292 292 292 293 293
310 310 304 302 302 300 302 302 301 299 295 293 292 290 289 289 289 290 291 291 291 290 290 290 290 290 290 290 290 291 294 296 296 296 296 295 294 290 289 290 289 289 289 289
309 301 300 299 298 297 296 296 295 294 294 292 290 290 289 288 288 288 288 289 290 289 288 288 288 289 289 289 289 288 287 288 287 287 286 287 290 290 289 288 288 288 287 287
303 300 300 297 296 296 295 293 293 293 292 290 290 289 288 287 287 286 287 287 288 287 287 287 286 287 288 288 288 287 287 286 286 288 289 290 291 289 290 289 289 289 289 290
304 299 298 295 294 294 294 294 293 292 291 289 290 289 288 286 285 285 285 285 285 284 284 284 286 288 287 287 287 287 286 286 286 286 285 286 288 288 288 288 289 289 289 289
297 295 294 292 292 292 292 291 290 290 290 289 288 286 286 285 284 284 284 285 286 286 286 287 287 288 287 288 288 288 285 285 285 285 284 284 284 284 286 285 285 286 286 286
294 295 295 294 292 291 291 290 290 289 289 288 287 287 285 284 283 283 285 285 285 286 286 286 286 287 286 286 286 286 286 286 285 284 284 284 284 283 282 282 280 282 280 280
293 293 293 292 292 291 291 290 290 288 287 286 286 286 285 284 283 282 282 282 284 285 285 285 286 285 285 284 285 285 285 284 284 283 283 282 281 281 280 280 279 279 278 277
292 293 292 292 291 290 290 290 289 287 286 284 284 283 282 281 280 281 282 281 280 282 283 283 283 282 281 281 281 281 281 281 281 280 280 280 280 280 279 279 278 277 276 276
294 293 292 291 290 289 288 287 287 285 284 283 282 282 281 280 278 281 282 281 281 280 279 279 278 278 279 279 280 280 280 279 279 279 279 279 279 278 278 278 277 275 275 275
290 289 289 289 288 287 285 284 284 283 281 280 280 281 280 280 280 280 280 279 277 277 277 277 277 277 278 278 278 279 279 279 278 278 278 277 277 277 277 276 276 275 274 273
286 286 286 285 285 284 282 281 279 279 280 280 281 281 281 281 280 279 277 276 276 276 276 276 276 276 276 276 277 278 278 277 277 277 276 276 276 276 276 275 274 274 273 272
283 282 282 281 281 280 278 279 280 281 281 281 281 280 279 278 276 275 275 275 275 275 275 275 274 274 274 275 275 276 276 276 276 275 274 275 275 274 273 273 273 273 272 271
280 279 278 280 281 281 281 281 281 281 280 280 278 277 277 276 276 276 277 277 274 274 274 274 274 274 274 274 274 274 274 274 274 274 274 274 273 273 272 272 272 271 271 270
279 278 279 280 280 280 280 280 279 278 277 276 276 276 276 275 275 275 274 274 273 273 273 272 273 273 273 273 273 272 272 272 273 273 272 272 272 272 271 271 270 270 270 269
279 279 280 280 279 280 278 277 277 276 276 276 276 275 275 275 275 276 276 274 272 272 272 272 272 272 272 271 271 271 271 271 271 270 270 270 270 270 270 270 269 269 268 268
279 279 279 279 278 277 277 277 276 276 276 276 276 275 275 275 274 273 272 272 272 272 271 271 271 271 271 270 270 269 270 270 269 269 269 269 269 268 268 268 267 267 267 267
279 278 278 278 279 280 278 277 276 276 275 276 274 273 273 273 273 273 272 271 271 271 271 271 270 270 269 269 269 268 268 269 268 268 268 268 268 268 268 267 267 266 266 266
280 281 281 280 280 280 279 279 279 279 277 277 276 274 273 272 272 271 271 271 270 270 270 270 269 269 269 269 269 268 268 268 268 268 267 267 267 267 267 267 266 266 266 265
280 280 280 280 279 278 278 278 278 279 277 276 276 275 274 273 272 272 272 272 271 271 270 270 270 269 269 268 268 268 268 268 268 267 267 267 267 267 267 266 266 265 265 265
Wind_Speed
20 25 7 1 15 16 16 11 7 11 13 12 8 8 7 10 10 12 13 14 16 16 14 13 15 20 23 24 23 24 24 22 21 20 18 16 15 16 15 13 11 11 9 12
19 22 12 8 14 12 8 9 10 10 10 10 15 10 9 10 10 13 12 14 14 15 13 12 15 15 19 21 22 21 23 23 21 20 19 18 18 18 17 16 16 13 14 17
11 18 8 4 17 17 8 5 6 7 13 17 15 11 13 13 12 12 11 12 15 15 14 14 13 16 18 20 19 19 20 19 18 18 17 15 16 15 16 16 18 19 19 20
12 15 11 7 4 0 3 1 8 9 12 8 12 16 18 14 13 12 11 12 14 12 12 14 16 18 17 18 18 19 19 17 16 15 15 13 11 12 10 10 11 11 12 13
6 10 7 12 6 3 5 6 11 9 11 6 11 12 13 9 9 10 11 12 11 15 12 14 15 15 18 19 18 17 20 18 15 14 12 10 10 9 6 5 7 6 5 4
9 3 5 9 8 4 7 4 11 13 12 15 8 5 4 8 10 11 10 11 12 12 14 13 16 16 18 20 19 20 19 17 13 17 16 13 11 10 8 6 6 4 1 2
7 3 8 13 9 8 7 5 13 12 13 15 5 5 15 13 12 10 10 11 11 13 13 15 15 14 17 17 19 19 18 16 17 16 14 14 12 10 11 10 9 7 7 9
5 3 3 23 5 6 7 5 10 11 10 12 14 14 16 15 15 13 12 12 10 15 17 16 14 13 15 16 15 14 13 13 14 15 15 16 15 14 13 13 14 14 14 17
6 4 12 16 12 10 10 10 11 9 10 11 12 13 13 13 13 15 13 12 11 13 16 17 16 15 17 16 15 15 15 15 14 14 14 15 17 17 17 15 15 15 14 15
3 7 10 13 11 11 11 12 11 11 11 10 13 12 13 11 11 13 15 13 12 14 16 18 18 18 17 16 15 17 19 19 18 19 18 17 17 18 19 17 15 15 13 12
4 5 5 12 11 9 11 13 14 14 12 11 12 13 11 11 12 14 14 15 14 15 16 17 16 18 16 15 14 16 17 17 18 20 21 20 20 20 19 16 14 13 12 11
3 7 6 8 8 7 11 12 12 13 13 11 9 10 10 11 10 11 12 13 14 15 15 15 15 15 16 16 13 13 14 13 14 13 13 14 16 17 17 15 11 10 10 9
3 8 12 10 11 9 11 12 11 13 12 12 11 11 11 12 12 13 14 14 15 16 15 15 15 16 16 14 12 13 14 12 12 12 11 10 8 9 10 11 9 8 8 7
6 6 8 7 6 8 9 11 12 12 11 11 10 10 11 11 11 11 12 12 12 12 13 13 13 13 13 12 11 12 11 10 10 10 9 9 8 8 8 6 5 6 9 8
8 7 10 8 7 7 6 6 8 9 9 9 9 9 9 10 12 12 11 11 10 10 10 10 9 10 11 10 8 8 8 9 8 7 8 8 7 7 6 6 6 6 8 10
5 7 6 5 5 5 5 6 6 7 7 8 9 9 9 10 10 9 8 9 7 9 8 8 7 7 7 9 9 8 6 6 7 6 6 6 6 6 5 5 5 3 3 3
1 1 2 2 3 4 5 6 6 7 8 9 9 10 10 9 9 9 8 8 7 7 6 5 6 5 5 6 9 6 6 6 8 5 5 5 5 5 5 5 5 5 4 4
3 3 3 3 3 4 6 7 8 8 9 8 9 10 10 8 7 7 6 7 7 6 5 5 5 4 4 4 7 6 5 5 5 5 4 4 5 5 5 5 5 4 4 5
5 5 6 6 5 6 7 7 8 9 9 8 7 7 6 5 5 5 5 6 7 6 6 5 5 5 5 4 6 5 5 4 4 4 4 6 5 4 4 4 4 4 4 4
6 7 7 8 8 8 9 9 8 9 8 7 6 4 4 3 3 4 5 5 4 4 5 5 6 6 5 4 6 4 4 4 3 2 2 3 3 3 5 4 3 3 3 4
9 9 9 10 10 10 10 9 8 7 6 4 3 2 2 2 2 2 6 4 6 4 5 6 4 3 4 3 6 4 4 3 3 2 2 2 3 2 2 2 2 2 3 3
10 11 12 11 11 10 9 8 6 5 4 3 3 3 5 5 5 5 2 0 6 4 4 5 6 5 4 3 4 4 3 3 2 2 3 2 2 2 3 3 3 4 5 5
11 11 10 10 8 7 6 5 4 3 3 3 4 4 2 1 2 3 4 9 3 5 4 7 7 6 4 4 4 4 4 3 3 3 3 3 3 4 4 5 6 5 6 6
10 8 8 7 6 5 3 2 2 0 1 2 2 3 2 3 5 4 5 7 6 5 5 7 6 5 4 3 4 4 3 4 4 4 4 7 5 6 5 6 7 6 7 9
8 7 6 5 3 1 1 2 1 2 2 2 4 5 4 4 2 5 3 6 6 3 5 11 8 6 3 4 5 5 5 5 7 6 6 6 7 7 7 8 9 9 9 9
6 3 2 3 2 1 2 4 4 5 5 6 7 7 6 5 4 3 5 5 5 7 4 10 9 9 6 7 8 8 8 7 8 9 9 9 8 9 10 10 10 10 9 10
4 4 1 0 1 2 3 4 5 6 6 7 7 7 7 6 7 6 7 6 6 7 8 8 10 10 9 9 9 9 9 9 11 10 9 10 10 11 12 11 11 11 12 12
Wind_Direction
285 278 277 148 275 213 218 223 261 292 308 320 13 25 143 99 83 66 50 49 31 28 43 83 108 121 138 150 151 155 161 165 172 171 167 169 172 177 177 175 186 195 167 187
291 263 239 296 311 282 255 276 275 277 277 353 53 91 122 107 87 76 62 60 50 34 40 64 89 105 125 131 139 153 162 166 168 170 169 175 179 186 189 191 196 200 189 201
291 219 186 233 248 246 230 263 279 318 1 8 30 33 101 99 85 84 70 65 66 45 36 54 76 93 111 114 117 130 137 138 138 142 141 145 164 167 176 187 197 203 210 216
274 175 193 154 304 351 280 77 27 19 40 38 86 67 62 74 91 85 77 72 73 59 49 50 66 79 93 109 110 110 109 111 113 124 126 122 145 161 158 160 167 170 182 198
278 170 122 158 81 42 330 93 51 359 0 112 134 108 56 70 104 109 106 93 84 87 67 71 66 76 86 90 93 96 93 88 89 101 112 112 103 117 131 134 144 148 154 192
301 200 161 110 86 354 304 177 11 358 0 345 197 229 104 100 102 97 95 99 88 83 85 81 79 76 74 81 78 84 86 86 81 94 96 100 94 96 91 105 111 113 104 13
264 285 99 6 347 312 262 33 1 10 13 19 50 56 123 128 110 102 92 82 90 88 72 67 68 69 71 67 64 69 77 84 79 87 90 89 89 98 93 91 99 100 94 85
238 262 143 355 48 8 342 15 22 31 41 77 94 100 105 107 104 98 88 83 73 80 71 64 65 73 82 75 72 71 70 84 89 87 87 89 90 89 85 82 84 86 95 94
35 48 47 34 50 24 21 46 44 69 80 98 97 90 94 89 93 95 86 77 75 76 76 73 75 76 79 77 83 87 94 100 98 98 103 108 105 99 93 88 87 86 83 86
307 42 52 41 41 44 49 65 70 84 95 105 102 99 94 94 96 95 88 74 75 74 70 70 69 71 74 79 81 82 83 87 92 94 92 92 106 114 113 95 91 97 88 82
107 107 97 61 47 57 71 78 82 85 89 92 97 88 86 79 79 80 79 81 74 74 72 71 71 70 67 71 78 83 83 82 81 81 84 89 93 95 94 93 96 94 91 94
22 0 71 53 53 67 76 74 78 84 82 80 90 98 100 88 84 88 89 89 89 83 83 80 84 92 103 96 77 78 83 85 86 83 76 78 83 86 86 81 80 84 83 86
41 76 109 104 81 69 75 75 84 87 86 87 84 92 98 94 88 87 86 86 86 85 84 85 87 89 86 86 95 99 91 82 89 95 95 106 79 54 68 75 71 72 71 66
117 69 98 29 97 78 77 80 82 81 82 86 92 92 92 89 84 80 84 83 83 87 87 86 86 87 84 84 83 85 90 97 96 95 90 93 94 99 97 83 34 32 42 47
57 76 94 99 79 67 69 82 84 82 85 87 91 95 96 94 87 79 72 70 80 90 92 91 91 90 90 77 78 83 79 75 73 78 84 82 76 76 77 77 75 71 36 17
66 75 76 73 65 59 64 72 88 89 90 92 94 95 97 96 91 95 109 117 92 80 85 84 84 87 87 87 59 55 67 85 78 65 63 62 65 65 58 59 61 51 41 48
217 67 46 51 49 50 61 73 94 102 106 107 105 106 107 101 94 95 96 94 88 85 75 76 74 66 74 78 80 55 50 47 66 61 67 67 67 70 71 70 63 39 34 40
58 51 44 84 109 104 89 90 101 114 125 139 141 136 134 134 107 95 87 75 63 51 52 58 56 54 54 72 74 56 56 57 59 62 66 73 70 68 69 72 69 66 42 15
70 77 81 91 100 108 104 104 107 106 109 108 105 102 99 94 91 87 85 72 51 32 25 36 37 26 33 52 68 44 47 52 54 47 48 56 52 60 61 58 56 49 39 22
91 98 103 107 124 112 106 104 107 111 108 102 94 85 75 66 60 52 38 14 24 20 14 17 27 9 14 35 69 41 58 51 55 52 91 69 63 41 19 10 49 36 19 8
105 108 109 112 114 113 110 109 109 108 106 102 89 68 41 20 8 29 30 358 332 347 357 353 323 14 343 30 35 29 35 33 39 28 41 26 21 16 13 3 352 348 332 327
109 111 110 111 111 111 112 112 110 105 93 77 59 42 28 10 6 357 315 44 319 321 355 329 316 316 318 16 6 14 16 18 9 6 360 357 337 327 322 321 322 309 309 307
118 116 117 114 114 115 114 111 106 92 72 46 28 22 37 357 354 338 316 314 335 320 359 306 320 317 305 328 350 351 344 341 337 318 310 300 302 298 298 296 282 299 295 293
119 118 121 121 110 90 78 97 79 338 323 329 320 332 29 337 333 321 300 278 286 296 292 314 323 315 294 345 339 336 342 326 322 310 296 305 297 298 300 290 293 288 291 299
136 130 125 104 107 89 157 189 215 281 315 280 307 322 336 308 286 267 263 285 296 337 298 312 325 324 335 315 308 310 308 307 282 288 283 287 287 288 287 285 287 288 281 283
133 137 166 187 168 223 250 259 270 269 268 271 277 273 280 282 285 289 302 283 284 292 302 293 322 314 308 301 295 291 290 289 298 305 289 280 278 279 280 279 279 282 283 281
166 155 155 184 311 296 250 256 261 275 270 271 269 266 280 275 269 267 270 277 296 287 288 291 290 295 287 276 276 279 281 288 287 283 278 272 273 276 275 273 275 276 278 279